Regional Weather Roundup
Issued by NWS

Home | Current Version | Previous Version | Text Only | Print | Product List | Glossary On
Versions: 1 2 3 4 5 6 7 8 9 10 11 12 13 14 15 16 17 18 19 20 21 22 23 24 25 26 27 28 29 30 31 32 33 34 35 36 37 38 39 40 41 42 43 44 45 46 47 48 49 50
066
ASUS44 KJAN 241310
RWRMS

MISSISSIPPI HOURLY WEATHER ROUNDUP
NATIONAL WEATHER SERVICE JACKSON MS
800 AM CDT SAT JUN 24 2017

NOTE: "FAIR: INDICATES FEW OR NO CLOUDS BELOW 12,000 FEET WITH NO
SIGNIFICANT WEATHER AND/OR OBSTRUCTIONS TO VISIBILITY.

MSZ001>002-007>008-010>013-018>021-025>028-034>036-241400-
NORTHWEST MISSISSIPPI

CITY           SKY/WX    TMP DP  RH WIND       PRES   REMARKS
BATESVILLE     FAIR      72  69  89 CALM      30.06R
CLEVELAND      CLOUDY    72  72 100 NW7       30.06R
GREENWOOD      CLOUDY    73  71  93 VRB3      30.06R
GREENVILLE     CLOUDY    73  70  90 NW3       30.06R
OLIVE BRANCH   CLOUDY   N/A N/A N/A N8        30.06R
TUNICA           N/A     70  64  83 N7        30.07R
WINONA         CLOUDY    71  71 100 MISG      30.05R
$$

MSZ003>006-009-014>017-022>024-029>033-037>039-241400-
NORTHEAST MISSISSIPPI

CITY           SKY/WX    TMP DP  RH WIND       PRES   REMARKS
COLUMBUS AFB   CLOUDY    75  75 100 NW6       30.00S
CORINTH        FAIR      75  70  83 N6        30.04R
GOLDN TRIANGLE CLOUDY    73  68  83 NW5       29.98R
STARKVILLE     CLOUDY    72  70  94 CALM      30.03R
TUPELO         CLOUDY    74  69  85 NW7       30.02R
$$

MSZ040-058-241400-
CENTRAL MISSISSIPPI

CITY           SKY/WX    TMP DP  RH WIND       PRES   REMARKS
JACKSON INTL   CLOUDY    72  70  93 NW6       30.05R
JACKSON HAWKNS CLOUDY    72  69  90 NW6       30.05S
MADISON        CLOUDY    70  68  94 NW7       30.05R
MERIDIAN KEY   PTSUNNY   76  74  93 SW5       30.03R
MERIDIAN NAS   CLOUDY    76  70  82 NW5       30.02R
RAYMOND        CLOUDY    73  70  88 NW6       30.05R
VICKSBURG VKS  SUNNY     73  72  94 CALM      30.03R
$$

MSZ059>079-241400-
SOUTH MISSISSIPPI

CITY           SKY/WX    TMP DP  RH WIND       PRES   REMARKS
COLUMBIA       FAIR      75  73  94 NW6       30.07R
HATTIESBURG    CLOUDY    75  71  87 N3        30.04S
LAUREL           N/A     74  74 100 N5        30.04S
MCCOMB         MOSUNNY   74  71  91 VRB3      30.03F
NATCHEZ        CLOUDY    72  70  93 NE3       30.06S
PINE BELT      CLOUDY    73  70  88 N3        30.05F
$$

MSZ080>082-241400-
COASTAL MISSISSIPPI

CITY           SKY/WX    TMP DP  RH WIND       PRES   REMARKS
BAY ST LOUIS   MOSUNNY   81  79  94 W5        30.01R FOG
BILOXI         CLOUDY    78  76  95 CALM      30.01R
PASCAGOULA     RAIN      76  73  91 S5        30.03R FOG
GULFPORT       CLOUDY    80  79  96 CALM      30.01R
$$

LAZ007>009-015>016-023>026-241400-
NORTHEAST LOUISIANA

CITY           SKY/WX    TMP DP  RH WIND       PRES   REMARKS
BASTROP        CLOUDY    72  71  98 CALM      30.06R
TALLULAH/VBURG CLOUDY    74  71  91 CALM      30.05R
VIDALIA        CLOUDY    72  71  97 NE5       30.05R
$$




USA.gov is the U.S. government's official web portal to all federal, state and local government web resources and services.